When you browse on this site, cookies collect data to enhance your experience and personalize the content and advertising you see.
Visit our Privacy Policy to learn more. By continuing to use the site, you agree to this use of cookies and data.
  • In United Kingdom
  • List of Countries
  • For 7 days
  • Water Temperature
  • Satellite Maps
  • Weather Map
  • Weather Widgets
  • user-avatar
    Login

    Hourly Weather Vasyl'ky

    Today, 21 April, Sunday

    Time Temperature Precipitation Wind Pressure Humidity
    00:00 +9°C° 0 mm 1 mps 756 mmHg 55%
    01:00 +9°C° 0 mm 1 mps 756 mmHg 56%
    02:00 +9°C° 0 mm 1 mps 756 mmHg 58%
    03:00 +8°C° 0 mm 1 mps 756 mmHg 60%
    04:00 +8°C° 0 mm 1 mps 756 mmHg 62%
    05:00 +7°C° 0 mm 2 mps 756 mmHg 64%
    06:00 +8°C° 0 mm 2 mps 756 mmHg 62%
    07:00 +9°C° 0 mm 2 mps 756 mmHg 60%
    08:00 +10°C° 0 mm 3 mps 756 mmHg 59%
    09:00 +11°C° 0 mm 3 mps 756 mmHg 53%
    10:00 +13°C° 0 mm 4 mps 756 mmHg 47%
    11:00 +14°C° 0 mm 4 mps 756 mmHg 41%
    12:00 +14°C° 0 mm 4 mps 756 mmHg 40%
    13:00 +14°C° 0 mm 5 mps 756 mmHg 40%
    14:00 +14°C° 0 mm 5 mps 756 mmHg 39%
    15:00 +14°C° 0 mm 5 mps 756 mmHg 40%
    16:00 +14°C° 0 mm 4 mps 756 mmHg 41%
    17:00 +13°C° 0 mm 4 mps 756 mmHg 41%
    18:00 +12°C° 0 mm 4 mps 756 mmHg 46%
    19:00 +11°C° 0 mm 3 mps 756 mmHg 50%
    20:00 +9°C° 0 mm 3 mps 756 mmHg 54%
    21:00 +9°C° 0 mm 3 mps 757 mmHg 56%
    22:00 +8°C° 0 mm 3 mps 757 mmHg 57%
    23:00 +7°C° 0 mm 3 mps 757 mmHg 58%

    Tomorrow, 22 April, Monday

    Time Temperature Precipitation Wind Pressure Humidity
    00:00 +7°C° 0 mm 3 mps 757 mmHg 59%
    01:00 +7°C° 0 mm 3 mps 757 mmHg 59%
    02:00 +5°C° 0 mm 3 mps 758 mmHg 60%
    03:00 +5°C° 0 mm 3 mps 758 mmHg 60%
    04:00 +5°C° 0 mm 3 mps 758 mmHg 61%
    05:00 +5°C° 0 mm 3 mps 758 mmHg 61%
    06:00 +7°C° 0 mm 3 mps 758 mmHg 58%
    07:00 +9°C° 0 mm 3 mps 759 mmHg 55%
    08:00 +11°C° 0 mm 3 mps 759 mmHg 51%
    09:00 +12°C° 0 mm 4 mps 759 mmHg 46%
    10:00 +13°C° 0 mm 4 mps 759 mmHg 40%
    11:00 +14°C° 0 mm 4 mps 759 mmHg 35%
    12:00 +15°C° 0 mm 4 mps 759 mmHg 35%
    13:00 +15°C° 0 mm 4 mps 759 mmHg 35%
    14:00 +15°C° 0 mm 4 mps 759 mmHg 36%
    15:00 +14°C° 0 mm 3 mps 759 mmHg 37%
    16:00 +14°C° 0 mm 3 mps 759 mmHg 39%
    17:00 +14°C° 0 mm 3 mps 759 mmHg 40%
    18:00 +13°C° 0 mm 3 mps 760 mmHg 43%
    19:00 +13°C° 0 mm 2 mps 760 mmHg 47%
    20:00 +12°C° 0 mm 2 mps 760 mmHg 50%
    21:00 +10°C° 0 mm 2 mps 760 mmHg 50%
    22:00 +10°C° 0 mm 2 mps 760 mmHg 50%
    23:00 +10°C° 0 mm 2 mps 761 mmHg 50%

    Day after tomorrow, 23 April, Tuesday

    Time Temperature Precipitation Wind Pressure Humidity
    00:00 +10°C° 0 mm 2 mps 761 mmHg 50%
    01:00 +11°C° 0 mm 1 mps 761 mmHg 50%
    02:00 +11°C° 0 mm 1 mps 761 mmHg 51%
    03:00 +10°C° 0 mm 1 mps 761 mmHg 52%
    04:00 +9°C° 0 mm 2 mps 761 mmHg 53%
    05:00 +9°C° 0 mm 2 mps 761 mmHg 54%
    06:00 +10°C° 0 mm 2 mps 761 mmHg 55%
    07:00 +12°C° 0 mm 2 mps 761 mmHg 55%
    08:00 +13°C° 0 mm 2 mps 762 mmHg 55%
    09:00 +13°C° 0 mm 3 mps 762 mmHg 50%
    10:00 +14°C° 0 mm 3 mps 762 mmHg 44%
    11:00 +17°C° 0 mm 3 mps 762 mmHg 39%
    12:00 +17°C° 0 mm 3 mps 762 mmHg 40%
    13:00 +16°C° 0 mm 3 mps 762 mmHg 42%
    14:00 +16°C° 0 mm 3 mps 761 mmHg 43%
    15:00 +16°C° 0 mm 3 mps 761 mmHg 45%
    16:00 +16°C° 0 mm 2 mps 761 mmHg 47%
    17:00 +16°C° 0 mm 2 mps 761 mmHg 49%
    18:00 +15°C° 0 mm 2 mps 761 mmHg 50%
    19:00 +14°C° 0 mm 2 mps 761 mmHg 50%
    20:00 +13°C° 0 mm 2 mps 761 mmHg 51%
    21:00 +13°C° 0 mm 2 mps 761 mmHg 52%
    22:00 +12°C° 0 mm 2 mps 762 mmHg 52%
    23:00 +10°C° 0 mm 2 mps 762 mmHg 53%

    24 April, Wednesday

    Time Temperature Precipitation Wind Pressure Humidity
    00:00 +10°C° 0 mm 2 mps 762 mmHg 54%
    01:00 +9°C° 0 mm 2 mps 762 mmHg 55%
    02:00 +9°C° 0 mm 2 mps 762 mmHg 56%
    03:00 +9°C° 0 mm 2 mps 762 mmHg 58%
    04:00 +8°C° 0 mm 2 mps 762 mmHg 60%
    05:00 +8°C° 0 mm 2 mps 762 mmHg 62%
    06:00 +10°C° 0 mm 2 mps 762 mmHg 60%
    07:00 +12°C° 0 mm 2 mps 762 mmHg 58%
    08:00 +14°C° 0 mm 2 mps 762 mmHg 56%
    09:00 +14°C° 0 mm 3 mps 762 mmHg 51%
    10:00 +16°C° 0 mm 3 mps 762 mmHg 46%
    11:00 +17°C° 0 mm 4 mps 762 mmHg 41%
    12:00 +18°C° 0 mm 3 mps 762 mmHg 41%
    13:00 +18°C° 0 mm 3 mps 762 mmHg 40%
    14:00 +18°C° 0 mm 3 mps 761 mmHg 40%
    15:00 +18°C° 0 mm 3 mps 761 mmHg 41%
    16:00 +18°C° 0 mm 3 mps 761 mmHg 42%
    17:00 +18°C° 0 mm 3 mps 761 mmHg 43%
    18:00 +16°C° 0 mm 3 mps 761 mmHg 47%
    19:00 +14°C° 0 mm 3 mps 761 mmHg 51%
    20:00 +13°C° 0 mm 2 mps 761 mmHg 55%
    21:00 +13°C° 0 mm 2 mps 761 mmHg 55%
    22:00 +12°C° 0 mm 2 mps 761 mmHg 55%
    23:00 +12°C° 0 mm 2 mps 761 mmHg 55%

    25 April, Thursday

    Time Temperature Precipitation Wind Pressure Humidity
    00:00 +10°C° 0 mm 2 mps 761 mmHg 57%
    01:00 +10°C° 0 mm 2 mps 761 mmHg 58%
    02:00 +9°C° 0 mm 2 mps 761 mmHg 60%
    03:00 +9°C° 0 mm 2 mps 761 mmHg 63%
    04:00 +9°C° 0 mm 2 mps 761 mmHg 65%
    05:00 +9°C° 0 mm 1 mps 761 mmHg 68%
    06:00 +10°C° 0 mm 2 mps 762 mmHg 64%
    07:00 +13°C° 0 mm 2 mps 762 mmHg 60%
    08:00 +14°C° 0 mm 2 mps 762 mmHg 56%
    09:00 +16°C° 0 mm 2 mps 762 mmHg 51%
    10:00 +17°C° 0 mm 3 mps 761 mmHg 47%
    11:00 +19°C° 0 mm 4 mps 761 mmHg 42%
    12:00 +20°C° 0 mm 4 mps 761 mmHg 41%
    13:00 +20°C° 0 mm 4 mps 760 mmHg 41%
    14:00 +21°C° 0 mm 4 mps 760 mmHg 40%
    15:00 +20°C° 0 mm 3 mps 760 mmHg 42%
    16:00 +20°C° 0 mm 3 mps 759 mmHg 44%
    17:00 +20°C° 0 mm 3 mps 759 mmHg 45%
    18:00 +18°C° 0 mm 3 mps 759 mmHg 50%
    19:00 +17°C° 0 mm 3 mps 759 mmHg 54%
    20:00 +15°C° 0 mm 2 mps 758 mmHg 58%
    21:00 +14°C° 0 mm 2 mps 758 mmHg 60%
    22:00 +14°C° 0 mm 2 mps 758 mmHg 61%
    23:00 +13°C° 0 mm 2 mps 758 mmHg 63%

    26 April, Friday

    Time Temperature Precipitation Wind Pressure Humidity
    00:00 +13°C° 0 mm 2 mps 758 mmHg 63%
    01:00 +13°C° 0 mm 2 mps 758 mmHg 63%
    02:00 +12°C° 0 mm 2 mps 758 mmHg 63%
    03:00 +12°C° 0 mm 2 mps 758 mmHg 63%
    04:00 +12°C° 0 mm 2 mps 757 mmHg 63%
    05:00 +12°C° 0 mm 2 mps 757 mmHg 63%
    06:00 +12°C° 0 mm 3 mps 757 mmHg 60%
    07:00 +14°C° 0 mm 3 mps 757 mmHg 57%
    08:00 +15°C° 0 mm 4 mps 757 mmHg 54%
    09:00 +17°C° 0 mm 4 mps 757 mmHg 50%
    10:00 +19°C° 0 mm 5 mps 756 mmHg 47%
    11:00 +20°C° 0 mm 5 mps 756 mmHg 44%
    12:00 +21°C° 0 mm 5 mps 756 mmHg 43%
    13:00 +21°C° 0 mm 5 mps 755 mmHg 43%
    14:00 +22°C° 0 mm 5 mps 755 mmHg 43%
    15:00 +21°C° 0 mm 5 mps 755 mmHg 45%
    16:00 +21°C° 0 mm 4 mps 754 mmHg 47%
    17:00 +21°C° 0 mm 4 mps 754 mmHg 49%
    18:00 +19°C° 0 mm 4 mps 754 mmHg 55%
    19:00 +17°C° 0 mm 4 mps 754 mmHg 60%
    20:00 +16°C° 0 mm 3 mps 753 mmHg 66%
    21:00 +14°C° 0 mm 3 mps 753 mmHg 67%
    22:00 +14°C° 0 mm 3 mps 753 mmHg 69%
    23:00 +13°C° 0 mm 3 mps 753 mmHg 71%
    Show more